User: anonymous   Login
Location: Vale
(35.4830°N, 81.3830°W)
Time: 23:59:41
(UTC-04:00)
Language:

Oscar 11 - Orbit

View from above orbital plane
View from above orbital plane
View from above satellite
View from above satellite

Ground track
Ground track

The orbit data is extracted from the following two-line orbital elements,

1 14781U 84021B   14303.22907983  .00001413  00000-0  18514-3 0  6502
2 14781 097.8362 000.6164 0010134 101.9818 258.2532 14.81849994647968
Epoch (UTC): 30 October 2014 05:29:52
Eccentricity: 0.0010134
inclination: 97.8362°
perigee height: 616 km
apogee height: 630 km
right ascension of ascending node: 0.6164°
argument of perigee: 101.9818°
revolutions per day: 14.81849994
mean anomaly at epoch: 258.2532°
orbit number at epoch: 64796

The dashed part of the orbit path shows where the satellite is in the earth's shadow,  

DLR